GEFSSGP_500_meanwind_282.txt.gz
Wind_Speed
2 2 2 2 2 3 4 3 4 4 4 4 4 5 5 5 5 5 5 5 5 5 5 4 4 4 4 4 4 4 5 5 6 6 6 5 5 5 5 5 6 6 6 6 6 5 5 5 6
3 3 2 2 2 3 4 4 5 4 5 5 6 6 6 6 6 6 6 6 6 6 5 5 5 4 4 5 5 5 5 6 6 6 7 6 6 6 6 6 6 7 6 6 6 6 6 7 7
3 3 3 3 3 4 5 5 5 5 6 6 6 6 6 6 6 6 7 7 8 7 6 6 6 5 6 5 6 6 6 6 6 7 7 7 7 7 7 7 7 7 7 7 7 7 7 8 8
3 3 3 3 4 5 6 6 6 6 7 7 7 7 7 7 7 7 8 8 9 8 8 8 7 7 7 7 7 7 7 7 7 7 7 7 7 7 8 8 8 8 8 8 8 9 8 8 8
4 4 4 4 4 6 6 6 7 7 8 8 7 7 7 7 7 8 8 9 9 9 9 9 8 8 9 9 8 8 8 8 8 8 7 8 8 8 8 8 8 8 9 9 9 9 9 9 9
4 4 4 5 5 6 6 7 8 8 8 8 8 8 9 9 8 9 9 9 9 8 8 8 9 9 9 10 9 9 9 9 9 9 9 9 9 9 9 9 9 9 9 9 9 9 10 10 10
5 5 5 6 6 7 7 7 8 8 9 9 9 9 9 9 9 10 10 10 9 9 9 9 9 9 9 9 10 10 10 10 10 10 10 10 10 10 9 9 9 9 9 9 9 9 10 10 9
6 6 6 7 7 8 8 8 8 8 9 9 10 10 10 10 10 10 10 10 10 10 10 9 10 10 11 11 11 12 12 12 11 12 12 11 11 11 11 10 9 9 9 10 10 10 9 9 9
7 7 7 7 7 8 8 8 8 9 9 10 10 10 11 11 11 11 10 10 11 11 10 10 11 11 11 11 12 13 13 13 12 13 13 13 12 11 11 10 10 9 9 10 10 10 10 10 10
8 8 8 8 8 8 9 9 9 10 10 10 10 10 10 10 11 11 10 10 11 11 11 11 11 12 12 13 13 13 13 14 13 13 12 12 12 11 11 10 10 10 10 10 10 10 11 11 11
9 9 8 8 8 9 10 10 10 10 10 10 10 9 10 10 11 10 11 11 11 11 12 12 13 13 13 13 14 14 14 13 12 12 12 12 12 12 11 11 11 11 10 10 11 11 11 11 12
8 8 9 9 9 9 10 10 10 10 10 10 10 9 10 10 11 11 11 11 11 11 12 13 13 14 14 14 14 14 15 14 13 13 13 13 13 12 12 12 12 12 11 11 11 12 12 12 12
8 8 9 9 9 9 10 10 10 10 10 10 10 10 10 10 11 11 11 11 12 12 13 13 13 14 14 15 15 15 15 14 14 14 14 13 13 13 13 13 12 12 12 12 12 12 12 12 12
9 9 10 10 10 10 10 10 10 9 11 11 11 11 10 11 11 12 12 12 13 13 13 13 14 14 15 15 15 15 15 15 15 14 14 14 14 14 14 13 13 13 13 13 12 13 13 12 12
9 9 10 10 10 10 10 10 10 10 11 11 11 11 10 11 12 12 12 13 13 13 14 14 14 15 15 15 15 15 15 14 14 14 14 14 14 14 14 14 13 14 14 13 13 13 13 13 12
9 9 10 10 10 10 11 10 11 11 11 12 11 11 12 12 13 12 13 14 14 14 14 14 15 15 16 16 16 16 15 14 14 14 14 14 14 14 14 14 14 15 15 14 15 14 14 14 13
9 10 10 10 10 11 11 11 11 12 12 13 13 12 12 13 13 13 14 15 15 15 15 15 15 15 15 16 16 15 15 14 14 14 14 14 14 14 14 14 14 14 15 15 16 15 14 14 13
9 9 10 11 10 11 11 11 11 12 12 13 13 13 14 14 14 14 15 15 15 15 15 15 15 15 15 15 15 14 13 14 14 14 14 14 14 14 15 15 15 15 16 16 16 15 14 14 13
10 10 11 11 12 12 12 11 12 12 13 13 13 14 14 16 16 15 15 15 15 15 15 16 15 15 14 14 14 13 13 13 13 14 13 14 14 14 15 15 16 16 16 16 16 15 15 15 14
11 11 11 12 13 12 12 12 12 12 13 14 14 15 15 16 16 16 16 16 16 15 15 15 15 15 15 14 14 13 13 13 14 14 14 15 15 14 14 15 15 16 16 16 15 15 15 14 14
11 12 11 11 12 12 12 12 11 12 13 14 15 16 16 16 16 16 15 16 16 16 16 15 15 15 15 14 14 14 14 14 15 15 15 15 15 15 15 15 15 15 15 15 15 15 14 15 14
11 12 12 12 12 11 11 12 11 12 14 15 15 16 16 17 17 16 15 16 17 17 16 16 16 16 15 15 15 15 15 15 15 15 16 16 16 16 16 15 15 15 15 15 15 15 15 16 16
11 11 11 11 11 11 11 12 13 13 15 15 16 16 17 17 17 17 17 17 17 17 17 16 16 16 16 15 15 16 16 16 16 16 16 17 17 17 16 16 16 16 15 15 15 16 16 16 16
11 11 11 10 10 11 10 13 15 14 16 16 17 17 18 18 17 17 17 17 17 17 17 17 17 17 17 17 16 17 17 17 16 16 16 17 17 17 16 16 16 16 16 16 16 16 16 16 16
12 11 11 10 10 11 12 15 16 16 17 17 17 17 17 17 17 16 17 17 17 17 17 17 17 17 17 17 17 17 17 16 16 16 16 16 16 16 17 17 17 17 17 17 17 16 17 17 16
12 12 11 11 11 13 15 17 17 17 17 17 17 17 17 17 16 16 16 16 16 17 16 16 16 16 16 17 17 17 16 16 16 16 16 16 16 17 17 17 18 18 17 17 17 17 17 17 17
13 13 13 13 13 14 14 18 18 17 17 17 17 17 18 17 17 17 17 17 17 17 17 16 16 16 16 16 16 16 16 16 16 16 16 16 16 17 17 17 17 18 17 17 17 17 18 18 17
14 13 14 14 14 13 14 17 18 17 18 18 18 18 18 18 18 18 18 18 18 17 17 17 16 16 16 17 17 17 17 17 16 17 17 17 17 17 17 17 17 18 18 17 18 18 18 18 18
15 15 15 15 15 15 16 17 18 18 19 19 19 18 18 19 19 18 18 18 18 18 18 17 17 17 17 17 17 17 17 17 17 18 18 18 17 17 17 18 17 17 18 18 18 18 18 19 19
17 16 16 16 16 17 18 18 19 20 20 20 20 20 19 20 19 19 19 18 18 18 18 17 17 17 17 17 17 17 17 18 18 18 18 18 18 19 19 18 18 18 18 18 18 19 19 19 20

GEFSSGP_500_meanwind_288.txt.gz
Wind_Speed
4 4 4 4 4 3 3 3 2 2 2 3 2 2 3 3 3 3 3 3 3 3 3 4 5 5 5 5 5 5 5 6 6 6 6 7 7 7 8 8 7 7 7 8 8 8 8 8 8
4 4 5 5 4 4 4 3 2 3 2 2 2 2 3 4 4 4 4 4 4 4 4 5 5 6 6 6 6 6 6 6 6 7 7 8 8 8 9 9 9 9 9 8 9 9 9 9 9
4 4 4 5 5 5 5 4 3 3 3 3 3 3 4 4 3 4 4 4 5 5 5 6 6 6 6 6 6 7 7 7 7 7 8 8 8 8 9 9 10 10 9 9 9 10 10 10 10
4 5 5 5 5 6 5 4 3 3 3 4 4 4 4 5 4 5 6 6 6 5 5 5 6 6 7 7 8 7 7 8 8 8 8 8 8 8 9 9 10 10 10 10 10 10 10 10 10
4 5 5 5 5 6 5 4 3 4 4 4 4 5 5 5 5 6 6 6 6 6 5 5 6 6 7 8 8 8 8 8 9 9 8 8 8 9 9 9 10 10 10 10 10 10 10 11 10
5 5 5 6 5 5 5 4 4 5 5 5 4 4 5 6 6 6 6 6 6 6 6 6 6 7 7 8 9 9 9 9 10 10 9 9 9 9 9 9 9 9 9 10 10 10 10 10 11
6 6 5 5 4 5 4 4 5 6 5 5 5 5 5 6 6 6 6 6 6 7 7 7 7 7 7 8 9 10 10 10 11 11 11 11 11 10 10 10 10 10 10 10 10 10 10 10 10
6 6 6 5 5 5 5 5 5 6 6 6 6 6 5 6 6 6 7 7 7 7 8 8 8 8 8 9 9 10 10 10 11 11 12 11 11 11 11 11 11 11 11 10 10 10 10 10 10
6 6 6 6 6 6 6 6 6 6 7 7 7 7 6 7 6 6 7 7 7 7 8 8 9 9 10 9 9 10 11 11 11 11 12 11 11 12 12 11 11 11 10 10 10 10 10 10 10
7 6 6 6 7 7 7 7 7 7 7 7 7 7 6 7 7 7 7 8 8 8 8 8 9 10 10 10 10 11 12 12 12 12 12 12 12 12 12 12 12 11 10 10 10 10 10 11 10
7 7 7 7 7 8 8 8 7 7 7 7 6 6 6 7 7 7 8 8 8 8 8 9 10 10 11 11 11 11 12 12 13 12 12 12 12 12 12 12 12 12 11 11 11 11 11 12 11
7 7 7 7 7 8 7 8 7 7 7 7 6 6 6 7 7 7 8 8 8 9 9 10 10 11 11 11 11 11 11 12 12 12 12 12 12 12 12 11 13 12 12 12 12 13 13 12 12
7 7 7 7 8 8 7 7 8 8 8 7 6 7 7 8 8 8 9 9 9 9 10 10 10 11 11 11 10 11 11 11 11 11 11 12 12 11 11 12 12 12 12 12 12 12 12 12 12
7 7 8 7 7 7 7 7 8 8 8 7 7 7 7 7 8 8 9 10 10 10 10 10 10 10 10 10 10 11 11 10 11 11 11 11 11 10 12 12 12 12 12 12 11 11 12 12 12
7 8 8 7 7 7 7 8 8 9 8 7 7 7 7 8 9 9 10 11 11 10 11 11 10 10 10 10 11 11 11 11 11 11 11 11 11 12 12 12 12 12 12 12 11 11 12 12 12
8 8 8 8 7 7 8 7 8 9 8 8 7 7 8 9 10 10 11 11 11 11 11 11 10 10 10 11 11 12 12 12 12 11 11 11 11 11 12 12 12 12 12 12 11 11 12 12 12
9 8 8 8 8 7 8 8 9 9 9 8 8 8 8 10 11 11 11 10 11 11 11 11 11 11 11 11 11 11 11 12 12 12 12 12 12 12 12 13 12 12 12 12 12 12 12 12 12
10 9 9 9 8 9 8 8 9 9 9 9 8 8 9 10 12 12 12 11 12 11 11 11 11 11 11 12 12 12 12 12 12 12 11 12 12 12 12 12 12 12 13 13 13 13 13 12 12
11 10 10 10 9 9 9 9 8 9 9 9 8 9 10 11 12 12 12 12 12 12 12 12 12 12 12 12 12 12 12 12 12 11 11 11 12 12 12 12 12 13 13 13 13 13 13 13 13
11 11 10 10 9 9 9 9 8 9 9 9 9 9 10 11 12 12 12 11 11 12 13 13 13 13 13 13 13 13 12 12 12 12 12 11 12 12 12 12 12 13 13 13 13 13 13 13 13
12 11 11 10 10 10 9 8 8 8 9 9 9 9 10 10 10 11 11 11 12 13 14 14 13 12 13 13 13 13 12 12 12 12 12 12 12 12 12 12 13 13 13 13 14 13 13 13 13
12 11 11 12 11 10 10 9 8 9 9 9 9 10 10 10 11 11 11 12 12 13 13 14 13 13 13 13 13 13 12 12 12 12 12 12 12 12 12 12 12 13 13 14 14 14 14 14 14
12 11 11 12 12 11 11 11 9 9 9 9 9 10 10 10 11 11 11 12 12 13 13 14 14 14 13 13 13 13 13 13 13 12 12 12 12 12 12 12 13 13 13 13 14 13 14 14 14
11 11 12 12 13 13 11 11 9 9 9 9 10 11 11 11 12 12 12 12 13 14 13 13 14 13 13 13 13 13 13 13 13 13 13 13 13 13 13 13 13 14 13 14 14 14 14 14 14
11 12 13 13 14 13 12 13 11 10 10 10 10 11 11 12 12 13 13 14 14 14 14 14 13 13 13 14 13 13 13 13 13 14 14 14 14 14 14 14 14 14 14 14 14 14 14 14 14
12 13 13 14 14 14 14 15 13 12 11 10 11 12 12 12 13 13 15 15 14 14 14 14 14 14 14 14 14 14 14 13 13 14 14 15 15 15 14 14 14 14 14 15 15 15 15 15 15
13 13 14 14 15 16 15 14 13 12 12 12 13 13 13 13 13 14 15 15 15 15 15 15 15 15 15 15 14 14 14 14 14 14 15 15 15 15 15 14 15 15 15 15 16 16 15 16 16
14 14 15 15 16 17 16 15 14 14 14 13 13 14 14 15 15 15 15 15 15 16 15 15 15 14 14 14 14 14 14 14 15 16 16 15 15 15 15 15 15 15 15 15 16 16 16 16 17
15 15 16 16 17 18 18 15 15 14 14 14 15 14 14 15 15 15 15 15 16 16 16 16 15 14 14 14 14 14 15 15 15 16 16 16 15 15 15 16 16 16 16 17 17 17 17 17 17
16 16 17 18 18 18 18 16 16 16 15 15 15 15 15 15 16 16 15 15 15 16 16 16 15 14 15 15 15 15 15 15 15 15 16 16 16 16 16 17 17 17 17 18 18 18 18 18 18

GEFSSGP_500_meanwind_294.txt.gz
Wind_Speed
5 4 4 5 4 3 3 3 4 3 3 3 3 3 3 2 3 3 3 2 3 3 3 4 4 4 5 5 5 4 4 5 6 6 6 6 6 7 8 8 8 8 8 8 7 8 8 8 8
5 5 5 5 5 4 3 4 4 3 3 3 3 3 4 3 3 4 3 3 4 4 5 5 5 6 6 6 6 6 6 6 7 7 7 7 7 8 8 8 8 8 8 9 9 9 9 9 9
6 6 5 6 5 5 4 4 4 4 4 3 3 3 4 4 4 4 4 4 4 5 5 6 6 6 6 6 7 7 7 7 7 7 7 8 8 8 8 8 9 9 10 10 9 10 10 10 10
6 6 6 6 6 6 5 5 5 5 4 4 4 4 4 5 5 5 5 5 6 6 6 7 7 7 6 7 7 6 7 7 7 8 8 8 8 8 9 9 9 9 10 10 11 11 10 10 10
7 7 7 6 6 6 5 5 5 5 5 5 5 4 5 5 5 6 6 6 6 6 6 6 7 6 6 7 7 7 7 7 8 8 8 8 9 9 8 9 9 9 9 10 11 11 11 10 10
7 7 6 6 6 6 5 4 5 5 5 5 5 5 5 5 6 6 6 6 6 6 6 6 7 7 7 8 8 8 8 9 9 9 9 10 10 10 10 10 10 9 9 10 10 10 10 11 11
6 6 6 6 6 5 5 4 4 5 5 6 6 6 6 6 6 6 7 7 7 7 7 7 7 8 8 8 9 9 9 9 10 10 11 11 11 11 10 10 10 10 10 10 10 11 10 11 11
6 7 6 5 5 5 5 5 5 5 6 5 6 6 6 6 7 7 7 7 7 7 8 7 8 8 9 9 10 10 10 10 10 11 11 11 11 11 11 10 10 11 11 11 11 11 10 10 11
6 7 6 6 6 6 6 6 5 5 5 5 6 6 6 7 7 7 7 7 7 7 7 8 8 9 10 10 11 11 11 11 11 12 11 11 12 12 11 11 11 12 11 11 11 11 11 11 11
6 6 6 6 6 7 7 6 6 5 5 6 6 6 6 7 7 7 7 8 8 8 8 8 9 9 10 11 11 12 12 12 12 12 12 12 12 12 11 11 11 12 12 12 12 12 11 11 11
7 7 7 7 7 7 7 7 6 6 6 6 6 6 6 7 7 7 8 9 9 8 8 9 10 10 10 11 11 12 12 12 13 13 13 13 12 12 12 12 12 12 13 13 13 13 12 11 11
8 7 8 8 8 8 7 7 6 7 6 7 7 6 7 7 7 8 8 9 9 9 10 10 10 11 11 11 11 11 11 12 12 12 13 13 12 12 12 13 12 13 13 13 12 12 12 12 12
8 8 8 8 9 8 8 7 8 7 7 7 6 6 7 7 7 8 9 9 10 10 9 10 10 11 10 10 10 11 11 11 12 12 12 12 12 12 12 12 12 13 13 13 13 13 13 12 12
8 8 8 8 8 8 8 8 8 7 7 6 6 7 7 7 7 8 9 9 9 9 9 9 9 9 10 10 10 11 11 12 12 13 13 12 12 12 12 12 12 13 13 13 13 13 13 13 12
9 9 9 8 9 9 9 8 8 8 8 7 7 8 8 8 9 9 9 9 9 10 9 9 9 9 10 10 11 11 11 12 13 13 13 13 13 13 12 12 12 13 13 13 13 13 12 12 12
10 10 10 9 9 9 10 9 9 9 9 8 8 8 9 9 9 9 9 9 9 10 10 10 10 10 10 10 11 11 12 12 13 13 13 13 13 12 12 12 11 12 11 12 11 11 12 12 12
11 11 10 11 11 11 10 10 10 10 9 9 9 9 9 9 9 8 9 9 10 10 10 10 10 10 10 11 11 12 12 13 13 13 13 12 12 11 11 11 12 12 12 11 11 11 11 11 12
12 11 11 12 12 12 11 11 10 10 10 10 10 9 10 9 9 9 10 10 10 10 10 10 10 11 11 11 12 13 13 13 13 13 13 12 12 12 12 12 12 11 12 12 12 12 12 12 12
13 13 12 13 13 13 12 11 11 11 11 10 10 10 11 10 10 10 10 10 10 10 10 10 10 10 11 12 12 13 13 13 13 12 12 12 12 12 12 13 13 12 13 14 13 13 13 13 13
14 14 13 14 14 13 12 12 12 12 12 12 11 11 12 12 12 11 10 10 9 9 10 10 10 11 11 12 13 13 13 13 13 12 12 12 13 13 13 13 14 14 14 14 14 13 13 13 13
14 14 14 14 14 14 13 13 13 12 12 12 11 11 11 11 11 10 10 9 9 9 10 11 11 11 11 12 13 13 13 13 13 13 13 12 12 13 13 13 13 13 14 13 13 13 13 12 12
13 13 13 14 14 14 15 14 13 13 12 12 11 11 11 11 11 10 10 10 10 10 10 11 12 12 12 12 13 13 13 13 14 14 14 13 13 13 13 14 14 14 14 14 14 13 12 12 12
13 13 14 14 15 15 15 16 13 13 12 12 12 12 12 12 11 11 11 11 11 11 11 12 12 12 13 13 13 13 14 14 14 14 14 14 14 14 14 13 14 14 14 14 14 14 13 13 13
14 14 15 16 16 16 15 16 13 12 13 13 13 13 12 12 11 12 12 12 12 12 12 12 12 13 13 13 13 14 14 15 14 14 14 14 14 15 15 15 14 14 14 14 14 14 14 14 14
15 15 16 17 17 17 15 15 14 12 13 14 14 14 13 12 12 12 13 12 12 12 12 13 13 13 13 13 13 14 14 14 13 13 13 13 14 15 15 15 15 15 15 15 15 15 15 15 15
16 16 16 17 16 16 16 15 14 13 13 14 14 14 13 13 13 13 13 13 12 13 13 13 13 13 13 13 14 15 14 14 13 13 13 13 14 15 15 15 16 16 16 15 16 16 16 15 16
16 17 17 17 17 16 16 15 14 13 13 14 14 13 13 14 14 13 13 13 13 13 14 14 14 14 14 14 15 15 14 14 13 13 14 14 15 15 16 16 16 16 15 15 15 15 16 16 17
17 17 17 18 17 17 16 15 15 13 13 13 13 13 14 14 14 14 14 14 14 14 14 14 14 14 14 15 15 15 15 14 14 14 14 15 16 16 15 15 16 16 16 16 16 16 16 17 17
18 19 19 19 19 19 18 16 15 14 14 14 14 14 15 15 15 15 15 15 15 15 14 14 15 14 14 14 15 15 15 15 15 15 15 16 16 16 16 16 16 16 17 17 17 17 17 18 18
19 19 20 21 20 20 19 18 17 17 16 15 15 15 15 16 16 16 16 16 16 15 15 15 15 15 15 15 15 15 15 15 15 15 16 16 16 16 16 16 16 17 17 17 18 18 18 19 19

GEFSSGP_500_meanwind_300.txt.gz
Wind_Speed
4 3 3 2 2 2 2 3 3 3 3 3 3 2 2 3 3 3 3 3 3 3 3 4 4 4 4 5 5 5 5 5 5 5 6 6 7 7 6 6 6 6 7 7 6 6 6 6 6
4 4 4 4 3 3 3 3 3 3 3 3 3 3 3 3 3 3 3 3 3 4 4 4 4 5 5 5 6 6 6 6 6 7 7 7 8 8 8 8 8 7 7 7 7 7 7 7 7
5 4 4 4 4 4 4 3 4 3 3 4 4 4 4 3 4 4 4 5 5 4 5 5 5 6 6 6 7 7 7 7 8 7 8 8 9 9 10 9 8 8 9 9 9 8 8 8 8
4 4 4 4 5 5 4 4 4 4 4 4 4 4 4 4 4 4 5 5 6 6 5 6 6 7 7 7 7 7 7 8 8 8 8 8 8 8 8 9 9 9 9 9 10 10 10 9 9
5 5 5 4 4 5 5 5 4 4 5 5 4 4 4 4 4 5 6 6 6 6 7 7 7 7 7 8 8 9 8 8 8 8 8 8 9 8 8 9 9 9 9 9 10 10 11 11 11
5 5 5 4 4 5 5 5 5 4 5 5 5 5 5 5 5 5 6 6 6 6 6 7 7 7 8 9 9 10 10 9 9 9 9 9 8 9 9 9 10 9 9 10 10 10 11 11 11
4 5 5 5 5 5 5 6 5 4 5 5 5 5 5 5 5 5 5 6 6 6 7 7 8 8 8 9 9 9 10 10 10 11 11 10 9 9 9 9 9 10 10 10 10 11 11 12 12
4 5 5 6 6 6 6 6 6 6 5 5 5 5 5 5 5 6 6 6 6 7 7 8 9 9 9 10 11 11 11 11 11 11 12 11 11 11 10 10 10 10 11 11 11 11 12 12 11
5 5 5 5 6 6 6 6 6 6 6 5 5 5 5 6 6 6 6 6 6 7 8 9 10 10 10 11 11 12 12 12 12 12 13 12 12 11 11 11 11 11 12 12 12 12 12 12 12
5 5 5 6 6 6 6 6 6 6 6 5 5 5 6 6 6 6 6 7 7 8 9 9 10 11 11 11 12 12 12 12 13 12 12 12 12 12 12 12 12 12 12 12 13 13 13 13 12
6 6 6 6 6 6 6 6 6 6 7 6 6 6 6 6 6 7 6 7 8 8 9 9 10 10 11 11 11 11 11 12 12 12 12 12 12 12 13 13 12 12 12 12 13 13 13 13 12
5 6 6 6 7 7 6 7 7 7 7 7 7 7 7 7 7 7 7 7 8 9 10 10 10 10 10 10 10 11 12 12 12 12 12 13 13 13 13 13 12 12 13 13 13 13 13 13 13
6 6 6 6 7 7 7 7 7 7 7 7 7 7 7 8 8 8 8 8 9 9 10 9 10 10 10 10 10 11 12 12 12 12 12 13 13 13 13 13 13 13 14 14 14 14 13 13 13
7 7 7 7 7 7 7 7 7 7 8 8 8 8 8 9 9 9 9 9 10 10 10 10 9 9 10 10 11 11 12 12 12 12 12 12 13 13 13 14 14 14 15 14 14 14 14 14 14
8 8 8 8 8 8 8 8 8 8 8 8 8 9 9 9 10 9 9 10 10 10 9 10 10 10 9 10 11 11 11 12 12 12 12 12 13 13 13 13 13 14 14 14 13 13 13 13 13
9 9 9 9 9 9 9 9 9 9 9 9 9 10 10 10 10 10 10 10 10 10 9 9 9 10 10 10 10 11 11 11 11 11 12 12 13 13 13 13 13 13 13 13 13 13 13 13 13
9 9 10 10 10 10 10 11 10 10 10 10 10 10 10 10 10 11 10 11 11 11 10 10 10 10 10 10 11 11 11 11 11 11 11 12 12 13 13 13 13 12 12 12 13 13 13 14 14
10 10 10 11 11 11 12 12 12 11 11 11 11 11 11 11 11 11 11 12 12 11 11 11 10 10 10 11 11 11 11 11 10 11 11 11 11 12 12 13 13 13 13 12 13 13 13 14 14
11 11 11 12 12 13 13 13 13 13 13 13 12 12 12 11 11 12 12 12 12 12 11 11 11 11 11 11 11 11 11 11 11 12 12 12 12 12 12 13 13 13 13 13 13 13 13 13 13
12 12 12 13 14 14 14 14 14 14 14 14 13 13 13 12 13 13 13 13 12 12 12 11 11 11 11 12 11 11 11 12 12 12 12 12 12 12 13 13 14 14 14 14 14 14 14 13 13
13 14 14 14 15 15 14 15 15 15 14 14 14 14 14 14 13 13 13 13 13 13 12 11 12 11 11 11 12 11 11 11 12 12 12 12 13 13 14 14 13 14 14 14 14 14 14 13 14
13 14 14 14 14 15 15 15 15 15 15 14 14 14 14 14 13 13 13 12 12 12 12 12 12 11 11 11 11 11 11 12 12 12 13 12 13 13 14 14 13 13 13 13 14 14 14 14 14
13 13 14 13 13 14 14 15 14 14 14 14 14 14 14 14 14 14 13 13 13 13 13 13 12 12 12 12 12 12 12 12 13 13 13 12 13 13 13 13 13 13 13 13 13 14 14 14 14
13 13 14 13 14 14 14 15 14 14 14 14 14 14 14 14 14 14 14 14 14 14 14 14 13 13 13 13 13 13 13 13 13 13 13 13 13 13 13 13 13 13 13 14 14 14 14 14 14
14 13 14 14 15 16 15 15 15 14 14 15 15 14 14 14 14 14 15 15 15 15 14 14 13 13 13 14 14 14 14 14 14 13 13 14 14 14 14 14 14 14 14 14 15 14 14 14 14
14 14 14 15 15 16 16 15 15 15 14 15 15 15 15 14 14 14 14 15 15 15 15 14 13 13 14 14 14 15 15 15 15 15 14 14 15 15 15 14 15 15 14 15 14 15 15 15 14
15 15 15 16 16 16 17 16 15 14 14 14 15 15 15 15 15 14 15 15 15 15 14 14 14 14 15 15 15 15 15 15 15 15 15 15 15 15 15 15 16 16 15 15 15 15 16 15 15
16 15 16 16 16 16 16 16 16 15 14 15 15 15 15 15 15 15 15 15 15 15 14 14 15 15 15 16 16 16 16 15 15 15 15 15 16 15 15 16 17 17 16 16 16 16 16 16 16
17 17 18 18 18 18 17 17 16 16 16 16 15 15 15 16 16 16 16 16 16 15 15 16 16 16 16 16 16 17 17 17 16 16 16 16 16 16 16 16 17 17 16 16 17 17 17 17 17
19 19 19 19 19 19 19 19 18 17 17 17 16 16 16 17 17 17 17 17 17 16 16 16 16 16 16 16 17 18 18 17 17 16 16 16 16 16 16 16 16 17 17 17 17 17 17 18 18

GEFSSGP_500_meanwind_306.txt.gz
Wind_Speed
4 4 4 4 4 4 4 5 5 5 5 5 5 5 5 5 5 5 5 5 5 5 5 5 5 5 5 6 6 6 6 6 6 6 6 7 7 7 7 8 8 8 8 8 8 8 8 8 7
5 5 5 5 5 5 5 5 5 5 5 6 6 6 6 6 5 5 5 5 6 6 6 6 6 6 7 7 7 7 7 7 7 7 7 7 8 8 8 9 9 9 9 9 9 9 9 9 8
5 6 6 6 6 5 5 5 5 6 6 6 6 7 7 6 6 6 6 6 6 6 7 7 7 7 7 8 8 9 9 8 8 8 8 8 9 9 9 10 10 11 11 11 11 10 10 9 9
7 6 6 6 6 6 6 7 6 6 6 7 7 7 7 7 7 7 7 7 7 7 8 8 8 8 8 9 9 9 9 9 8 8 9 9 9 9 10 10 11 11 11 10 11 11 11 11 11
7 6 6 7 6 6 7 7 7 7 7 7 7 7 7 7 7 8 7 7 8 9 9 9 9 9 10 10 10 10 10 9 9 9 9 10 10 10 10 10 10 10 10 10 11 11 11 11 12
7 7 6 7 7 7 7 7 7 7 7 8 8 7 7 7 8 8 8 8 9 9 9 9 9 9 9 10 10 10 10 10 10 10 10 10 10 10 10 10 10 10 11 11 11 11 11 12 12
7 7 7 8 7 8 8 8 8 8 8 8 8 8 8 8 8 8 8 9 9 10 10 9 9 10 10 10 10 10 10 10 11 11 11 11 11 11 11 11 11 12 12 12 11 11 12 12 12
6 7 7 8 8 8 9 9 9 9 9 9 9 8 8 8 8 8 8 9 9 9 9 10 10 10 10 11 11 11 11 11 11 11 11 11 11 11 12 12 12 12 12 12 12 12 12 13 13
6 7 7 7 8 9 9 9 9 9 9 9 9 9 8 8 8 8 8 9 9 9 9 10 10 10 10 11 11 11 11 11 11 11 11 11 11 11 12 12 13 13 12 13 13 13 13 13 14
6 7 7 8 8 8 9 10 10 10 10 10 10 9 9 9 9 9 9 9 10 10 10 10 10 11 11 11 11 11 11 11 11 11 12 12 12 12 12 13 13 13 13 13 14 14 14 14 14
8 8 8 9 9 9 9 10 9 10 11 10 9 9 9 9 10 10 10 10 10 11 11 10 11 11 11 11 11 11 11 11 11 12 12 12 12 12 13 13 13 13 14 14 14 14 14 14 14
8 9 10 10 9 9 9 9 10 10 10 10 10 10 10 10 10 10 10 10 11 11 11 11 12 11 11 11 11 11 10 11 11 12 12 12 12 12 13 13 13 13 14 14 14 14 13 13 13
9 9 9 9 9 9 9 9 10 10 10 11 11 11 11 11 11 11 11 11 12 11 12 12 12 11 11 11 11 11 11 11 12 12 12 12 13 12 13 12 13 13 14 14 14 14 14 14 14
9 9 10 10 10 10 10 10 10 11 11 12 12 12 12 12 11 12 12 12 12 13 12 12 12 11 11 11 11 11 11 12 12 12 12 13 13 13 13 13 13 13 14 14 14 14 14 14 14
9 9 9 9 10 10 10 10 10 11 11 12 12 12 12 12 12 12 12 12 12 13 13 12 12 11 11 12 12 12 13 13 13 13 13 13 13 13 13 13 13 14 14 14 14 14 15 14 15
10 10 10 9 9 10 11 11 11 11 12 12 12 13 12 12 12 13 13 13 13 13 13 12 12 12 12 13 12 12 13 13 13 13 12 12 12 13 13 13 13 14 14 14 14 14 15 15 15
11 11 11 11 10 11 11 11 11 12 13 13 13 13 13 13 13 13 13 13 13 13 13 13 13 13 13 13 13 13 13 13 13 13 12 13 13 13 14 13 13 14 14 14 14 15 15 15 15
12 13 13 13 12 12 12 12 12 13 14 14 14 14 13 13 13 13 13 13 13 13 13 13 13 12 13 13 13 13 13 13 13 13 12 12 13 13 13 13 13 14 14 15 15 15 15 15 14
13 14 14 14 14 13 13 13 14 13 14 15 14 15 14 14 14 13 14 13 13 13 14 13 13 13 13 12 12 13 13 12 13 12 12 12 12 13 13 13 13 14 14 14 15 15 15 15 14
14 14 15 15 16 14 15 15 15 15 15 15 15 15 15 15 14 14 14 15 15 14 14 14 13 13 12 13 13 13 12 12 12 12 12 12 12 13 13 14 14 14 14 14 14 14 14 14 14
14 15 16 16 15 15 15 15 14 14 15 17 16 16 17 16 15 15 15 15 15 14 14 14 14 13 14 13 13 13 13 13 13 12 12 13 13 13 14 14 14 14 14 14 14 13 13 13 13
15 15 16 16 16 16 15 15 14 15 15 16 16 16 16 16 15 15 15 15 15 14 14 14 13 13 13 13 14 14 13 13 12 12 13 14 14 14 14 14 14 15 14 14 14 13 13 13 13
16 16 16 15 15 16 16 16 16 16 16 16 16 15 16 16 16 16 16 16 16 16 15 14 14 14 13 13 13 13 14 14 14 14 14 15 15 15 14 15 15 15 15 15 14 13 13 13 14
16 16 15 15 15 15 15 17 18 17 17 17 16 16 16 16 16 17 16 16 16 16 15 14 14 14 14 14 13 13 13 14 14 15 15 15 15 14 15 15 15 15 15 15 14 14 13 14 14
16 16 15 15 15 15 16 18 18 18 17 17 17 17 16 17 16 16 17 16 16 16 16 15 15 15 14 14 14 14 14 14 14 15 15 15 15 15 15 16 16 16 15 15 15 15 15 15 15
16 16 16 15 14 16 16 18 19 18 18 18 19 18 17 17 17 17 17 17 17 17 17 16 16 16 16 16 15 15 15 15 15 16 16 15 15 16 16 17 17 16 16 16 16 16 16 16 16
17 17 16 17 16 17 17 19 20 18 18 19 19 19 18 18 18 18 17 17 17 18 17 17 17 17 17 17 17 17 16 16 16 16 17 17 16 16 17 17 17 17 17 17 17 17 17 18 17
18 18 18 19 19 18 18 19 21 19 19 18 19 19 18 18 18 18 18 18 18 18 18 18 18 18 18 19 18 18 17 17 17 17 17 17 18 18 18 18 18 18 18 18 18 18 18 18 18
19 19 20 20 19 19 20 21 21 20 19 18 19 19 19 19 19 18 18 19 19 19 19 19 19 19 19 19 19 19 18 19 19 18 18 18 18 18 18 18 19 19 19 19 20 19 19 18 18
19 20 20 20 20 20 22 23 22 20 20 20 20 20 20 21 21 20 20 20 20 20 20 20 20 20 20 19 19 19 19 19 19 19 19 19 19 19 19 19 20 20 20 20 20 20 19 18 18